Regional Weather Roundup
Issued by NWS

Home | Current Version | Previous Version | Graphics & Text | Print | Product List | Glossary On
Versions: 1 2 3 4 5 6 7 8 9 10 11 12 13 14 15 16 17 18 19 20 21 22 23 24 25 26 27 28 29 30 31 32 33 34 35 36 37 38 39 40 41 42 43 44 45 46 47 48 49 50
000
ASUS43 KDTX 030510
RWRMI
MICHIGAN HOURLY REGIONAL WEATHER ROUNDUP
NATIONAL WEATHER SERVICE DETROIT/PONTIAC MI
100 AM EDT TUE MAY 03 2016

NOTE: "FAIR" INDICATES FEW OR NO CLOUDS BELOW 12,000 FEET WITH NO
SIGNIFICANT WEATHER AND/OR OBSTRUCTION TO VISIBILITY.

MIZ047>049-052>055-059>063-066>070-074>076-081>083-030600-
SOUTHEAST LOWER MICHIGAN

CITY           SKY/WX    TMP DP  RH WIND       PRES   REMARKS
ADRIAN         CLOUDY    49  46  90 CALM      29.98S
ALMA           CLEAR     39  39  98 CALM      29.98S
ANN ARBOR      CLOUDY    47  45  93 W3        29.97S
BAD AXE        CLEAR     36  32  87 CALM      29.97S
CARO           CLEAR     36  35  94 CALM      29.97S
DETROIT CITY   CLEAR     45  39  79 CALM      29.98F
DETROIT        CLOUDY    49  46  90 SE3       29.98S
FLINT          MOCLDY    43  39  86 CALM      29.98S
GROSSE ILE     CLOUDY    48  46  93 CALM      29.97S
HILLSDALE      CLOUDY    48  45  89 CALM      29.97F
HOWELL         CLOUDY    49  43  81 CALM      29.97S

CITY           SKY/WX    TMP DP  RH WIND       PRES   REMARKS
JACKSON        CLOUDY    48  46  93 SW5       29.97S
LAMBERTVILLE   CLOUDY    50  47  90 CALM      29.98S FOG
LANSING        CLOUDY    45  42  89 CALM      29.98S
LAPEER         FAIR      37  37  97 CALM      29.98S
MASON          CLOUDY    47  45  90 CALM      29.97S
MONROE         CLOUDY    49  48  97 CALM      29.97S FOG
PONTIAC        CLEAR     43  40  89 CALM      29.96S
PORT HOPE        N/A     38  33  82 CALM      29.96R
PORT HURON     CLEAR     37  37 100 CALM      29.98S
TRI CITIES     CLEAR     46  30  53 NW3       29.98S
MIDLAND        FAIR      38  33  80 CALM      29.97S
TROY           CLEAR     46  42  85 CALM      29.99S
SAGINAW HB     CLEAR     41  34  75 CALM      29.97S
$$
MIZ043>046-050>051-056>058-064>065-071>073-077>080-030600-
SOUTHWEST LOWER MICHIGAN

CITY           SKY/WX    TMP DP  RH WIND       PRES   REMARKS
BATTLE CREEK   CLOUDY    49  44  83 CALM      29.99S
BENTON HARBOR  CLEAR     40  37  89 CALM      29.99F
BIG RAPIDS     CLEAR     43  36  75 CALM      29.97F
COLDWATER      CLOUDY    48  47  95 CALM      29.98S
FREMONT        FAIR      43  39  86 CALM      29.98S
HOLLAND        CLEAR     41  39  93 CALM      30.00S
GRAND RAPIDS   CLEAR     44  39  82 CALM      29.99S
IONIA          FAIR      42  40  92 W5        29.98S
KALAMAZOO      CLOUDY    48  43  82 CALM      29.99S
LUDINGTON      CLEAR     39  33  77 CALM      29.99S
MARSHALL       CLOUDY    48  46  91 CALM      29.97F
MOUNT PLEASANT CLEAR     39  35  84 CALM      29.98S
MUSKEGON       CLEAR     40  36  86 CALM      29.99F
SOUTH HAVEN    CLEAR     38  37  97 CALM      29.99F
$$
MIZ016>042-030600-
NORTHERN LOWER MICHIGAN

CITY           SKY/WX    TMP DP  RH WIND       PRES   REMARKS
ALPENA         CLEAR     39  34  82 CALM      29.97F
BEAVER ISLAND  CLEAR     37  33  87 CALM      29.96F
BELLAIRE       CLEAR     38  34  86 CALM      29.97F
CADILLAC       CLEAR     36  30  79 CALM      29.97S
CHARLEVOIX     CLEAR     38  33  81 W6        29.99F WCI  34
FRANKFORT      CLEAR     38  32  79 CALM      29.97F
GAYLORD        CLEAR     42  30  62 CALM      29.96F
GRAYLING       CLEAR     36  30  80 CALM      29.98S
HARBOR SPRINGS CLEAR     39  33  78 CALM      29.96F
HOUGHTON LAKE  CLEAR     38  34  85 CALM      29.97F
MANISTEE       CLEAR     37  28  70 CALM      29.98S
OSCODA         CLEAR     39  29  68 CALM      29.95F
PELLSTON       CLEAR     34  29  82 CALM      29.96F
ROGERS CITY    CLEAR     40  32  71 CALM      29.98S
TRAVERSE CITY  CLEAR     40  34  79 CALM      29.96F
$$
MIZ007>008-015-030600-
EASTERN UPPER MICHIGAN

CITY           SKY/WX    TMP DP  RH WIND       PRES   REMARKS
KINROSS          N/A     39  34  81 W3        29.95F
MACKINAC ISLAN CLEAR     40  33  75 NE5       29.95F
NEWBERRY       CLEAR     36  32  87 CALM      29.95F
S. S. MARIE    CLEAR     40  30  67 W5        29.94F
MUNISING         N/A     35  30  82 S6        29.94F WCI  30
$$
MIZ004>006-011>014-085-030600-
CENTRAL UPPER MICHIGAN

CITY           SKY/WX    TMP DP  RH WIND       PRES   REMARKS
MANISTIQUE     CLEAR     36  32  86 CALM      29.95F
ESCANABA       CLEAR     36  32  87 CALM      29.96F
MENOMINEE      CLEAR     43  34  70 CALM      29.97F
SAWYER-GWINN   CLEAR     37  31  79 CALM      29.93F
$$
MIZ001>003-009>011-084-030600-
WESTERN UPPER MICHIGAN

CITY           SKY/WX    TMP DP  RH WIND       PRES   REMARKS
IRON MOUNTAIN  CLEAR     41  30  65 CALM      29.94F
HOUGHTON       CLEAR     44  32  62 SW6       29.92F
COPPER HARBOR    N/A     44  33  65 CALM      29.92F
IRONWOOD         N/A     37  34  87 CALM      29.92F
$$

ABBREVIATIONS USED IN REMARKS
   TC - TEMPERATURE IN CELSIUS
  WCI - WIND CHILL INDEX
   HX - HEAT INDEX
  VSB - VISIBILITY





USA.gov is the U.S. government's official web portal to all federal, state and local government web resources and services.